sat.trackr.live / text

‹ back to catalog

ONEWEB-0365

NORAD 49291 · 2021-090N

PAYLOAD ACTIVE UNKNOWN

§ Identity

Operator
Country
UK
Launch date
2021-10-14
Launch site
VOSTO
Launch vehicle
Mass (kg)
RCS (m²)

Purposes: comms

External: N2YO · Heavens-Above · Gunter

§ Orbital elements

Epoch: 2026-09-20T00:48:14.683392Z

Period
109.11 min
Inclination
87.9107°
Eccentricity
0.0001883
Mean motion
13.19727194 rev/d
Perigee alt
1,184.3 km
Apogee alt
1,187.2 km
Semi-major
7,563.9 km
B*
1.7481e-4
RAAN
286.0726°
Arg perigee
92.5955°
Mean anomaly
267.5393°
Rev number
23,893

§ Raw data

ONEWEB-03651 49291U 21090N   26263.03350328  .00000083  00000+0  17481-3 0  99942 49291  87.9107 286.0726 0001883  92.5955 267.5393 13.19727194238939

JSON: /api/v1/satellites/49291 · /tle

For live sub-satellite position, see the globe view (requires WebGL).

§ Visibility from observer

Set your observer location to see the next 7 days of passes ≥ 10°. The values pass through the URL so the page stays shareable.

No JS? Fill the form by hand. The geolocation button needs JavaScript.